This demonstration page uses our WeatherBlox Daily Observations layout. Learn more.

Left ArrowRight Arrow

39.95238, -75.16362

Hourly Observations for April 8, 2015

Temp ( °F °C ) Dew Point ( °F °C ) Humidity (%) Winds ( mph kmh ) Pressure ( in mb ) Visibility ( mi km ) Precip ( " mm )
12:33 am 00:33 Cloudy with Light Rain 45 7.2 43 6.1 93 93 ENE 9 15 30.27 1025 3 4 0.07 1.78
12:54 am 00:54 Cloudy with Light Rain 45 7.2 42 5.6 90 90 ENE 13 20 30.28 1025 3 4 0.10 2.54
1:11 am 01:11 Cloudy with Mist and Fog 44 6.7 41 5 89 89 ENE 20 31 30.27 1025 4 6 0.00 0.03
1:16 am 01:16 Cloudy with Mist and Fog 45 7 41 5 87 87 ENE 16 26 30.27 1025 6 10 0.00 0.00
1:32 am 01:32 Cloudy with Mist and Fog 44 6.7 41 5 89 89 ENE 14 22 30.27 1025 6 10 0.01 0.25
1:51 am 01:51 Cloudy with Mist and Fog 45 7 41 5 87 87 ENE 10 17 30.27 1025 6 10 0.01 0.25
1:54 am 01:54 Cloudy with Mist and Fog 44 6.7 41 5 89 89 ENE 14 22 30.27 1025 6 10 0.01 0.25
2:39 am 02:39 Cloudy 44 6.7 40 4.4 85 85 ENE 12 19 30.27 1025 8 13 0.01 0.25
2:54 am 02:54 Cloudy 44 6.7 41 5 89 89 ENE 14 22 30.25 1024 8 13 0.01 0.25
3:09 am 03:09 Cloudy 44 6.7 40 4.4 85 85 ENE 13 20 30.27 1025 10 16 0.00 0.00
3:54 am 03:54 Cloudy 44 6.7 40 4.4 85 85 ENE 14 22 30.25 1024 10 16 0.00 0.00
4:54 am 04:54 Cloudy 44 6.7 40 4.4 85 85 ENE 14 22 30.24 1024 10 16 0.00 0.00
5:54 am 05:54 Cloudy 44 6.7 40 4.4 85 85 ENE 12 19 30.24 1024 10 16 0.00 0.00
6:54 am 06:54 Cloudy 44 6.7 40 4.4 85 85 ENE 16 26 30.26 1025 10 16 0.00 0.00
7:54 am 07:54 Cloudy 44 6.7 40 4.4 85 85 ENE 9 15 30.27 1025 10 16 0.00 0.00
8:54 am 08:54 Cloudy 44 6.7 39 3.9 83 83 ENE 17 28 30.29 1026 10 16 0.00 0.00
9:48 am 09:48 Cloudy with Drizzle 45 7 39 4 81 81 ENE 16 26 30.30 1026 7 11 0.00 0.03
9:54 am 09:54 Cloudy with Drizzle 44 6.7 39 3.9 83 83 ENE 17 28 30.30 1026 7 11 0.00 0.03
10:19 am 10:19 Cloudy with Drizzle 43 6.1 39 3.9 86 86 ENE 13 20 30.30 1026 6 10 0.00 0.03
10:50 am 10:50 Cloudy with Light Rain 45 7 39 4 81 81 E 18 30 30.30 1026 7 11 0.00 0.00
10:54 am 10:54 Cloudy with Light Rain 44 6.7 39 3.9 83 83 ENE 14 22 30.30 1026 7 11 0.00 0.03
11:31 am 11:31 Cloudy 44 6.7 38 3.3 79 79 ENE 13 20 30.30 1026 10 16 0.00 0.03
11:54 am 11:54 Cloudy 44 6.7 39 3.9 83 83 ENE 16 26 30.29 1026 10 16 0.00 0.03
12:54 pm 12:54 Cloudy 44 6.7 37 2.8 76 76 ENE 16 26 30.28 1025 10 16 0.00 0.00
12:59 pm 12:59 Cloudy 44 6.7 37 2.8 76 76 ENE 16 26 30.27 1025 10 16 0.00 0.00
1:08 pm 13:08 Cloudy with Light Rain 44 6.7 37 2.8 76 76 ENE 16 26 30.27 1025 7 11 0.00 0.03
1:54 pm 13:54 Cloudy 43 6.1 37 2.8 80 80 ENE 16 26 30.27 1025 8 13 0.00 0.03
2:16 pm 14:16 Cloudy with Drizzle 43 6 37 3 81 81 ENE 15 24 30.27 1025 6 10 0.00 0.00
2:22 pm 14:22 Cloudy with Drizzle 43 6 37 3 81 81 ENE 18 30 30.27 1025 4 6 0.00 0.00
2:44 pm 14:44 Cloudy with Drizzle 42 5.6 38 3.3 85 85 ENE 13 20 30.27 1025 5 8 0.00 0.03
2:54 pm 14:54 Cloudy with Drizzle 42 5.6 38 3.3 85 85 ENE 16 26 30.25 1024 5 8 0.00 0.03
3:33 pm 15:33 Cloudy 42 5.6 38 3.3 85 85 ENE 15 24 30.27 1025 7 11 0.00 0.03
3:54 pm 15:54 Cloudy 42 5.6 38 3.3 85 85 ENE 13 20 30.25 1024 7 11 0.00 0.03
3:58 pm 15:58 Cloudy with Drizzle 42 5.6 37 2.8 82 82 ENE 16 26 30.24 1024 3 4 0.00 0.03
4:32 pm 16:32 Cloudy with Drizzle 41 5 38 3.3 89 89 ENE 15 24 30.24 1024 3 5 0.00 0.03
4:48 pm 16:48 Cloudy with Drizzle 41 5 37 3 87 87 NE 14 22 30.24 1024 3 4 0.00 0.00
4:54 pm 16:54 Cloudy with Drizzle 41 5 38 3.3 89 89 NE 12 19 30.25 1024 3 4 0.00 0.03
5:32 pm 17:32 Cloudy with Drizzle 41 5 37 3 87 87 NE 16 26 30.24 1024 3 4 0.00 0.00
5:54 pm 17:54 Cloudy with Drizzle 41 5 37 2.8 86 86 ENE 12 19 30.25 1024 3 4 0.00 0.03
6:12 pm 18:12 Cloudy with Drizzle 41 5 38 3.3 89 89 ENE 10 17 30.24 1024 3 5 0.01 0.25
6:22 pm 18:22 Cloudy with Drizzle 40 4.4 37 2.8 89 89 ENE 12 19 30.24 1024 5 8 0.01 0.25
6:44 pm 18:44 Cloudy with Drizzle 40 4.4 37 2.8 89 89 ENE 12 19 30.24 1024 5 8 0.01 0.25
6:54 pm 18:54 Cloudy with Mist and Fog 40 4.4 37 2.8 89 89 ENE 12 19 30.25 1024 5 8 0.01 0.25
7:10 pm 19:10 Cloudy with Drizzle 40 4.4 37 2.8 89 89 NE 14 22 30.24 1024 3 5 0.00 0.03
7:54 pm 19:54 Cloudy with Drizzle 40 4.4 37 2.8 89 89 ENE 12 19 30.22 1024 3 5 0.00 0.03
8:47 pm 20:47 Cloudy with Mist and Fog 40 4.4 37 2.8 89 89 ENE 9 15 30.24 1024 5 8 0.00 0.03
8:54 pm 20:54 Cloudy with Mist and Fog 40 4.4 37 2.8 89 89 NE 9 15 30.23 1024 5 8 0.00 0.03
9:36 pm 21:36 Cloudy with Drizzle 40 4.4 37 2.8 89 89 ENE 13 20 30.21 1023 3 5 0.00 0.03
9:54 pm 21:54 Cloudy with Drizzle 40 4.4 37 2.8 89 89 ENE 13 20 30.18 1022 3 5 0.00 0.03
10:23 pm 22:23 Cloudy with Mist and Fog 40 4.4 37 2.8 89 89 NE 12 19 30.21 1023 5 8 0.00 0.03
10:54 pm 22:54 Cloudy with Mist and Fog 40 4.4 37 2.8 89 89 ENE 12 19 30.22 1024 5 8 0.00 0.03
11:44 pm 23:44 Cloudy with Mist and Fog 39 4 37 3 93 93 NE 15 24 30.21 1023 3 5 0.00 0.00
11:54 pm 23:54 Cloudy with Mist and Fog 39 3.9 37 2.8 93 93 ENE 15 24 30.19 1022 4 6 0.00 0.00

Powered by AerisWeather